When you browse on this site, cookies collect data to enhance your experience and personalize the content and advertising you see.
Visit our Privacy Policy to learn more. By continuing to use the site, you agree to this use of cookies and data.
  • In Hungary
  • List of Countries
  • For 7 days
  • Water Temperature
  • Weather Map
  • News
  • Weather Widgets
  • user-avatar
    Login

    Hourly Weather Perth

    Today, 2 June, Tuesday

    Time Temperature Precipitation Wind Pressure Humidity
    00:00 +15°C° 0 mm 2 mps 768 mmHg 73%
    01:00 +15°C° 0 mm 2 mps 768 mmHg 75%
    02:00 +14°C° 0 mm 2 mps 767 mmHg 73%
    03:00 +14°C° 0 mm 2 mps 767 mmHg 73%
    04:00 +13°C° 0 mm 3 mps 767 mmHg 74%
    05:00 +13°C° 0 mm 3 mps 767 mmHg 74%
    06:00 +13°C° 0 mm 3 mps 768 mmHg 73%
    07:00 +13°C° 0 mm 3 mps 768 mmHg 73%
    08:00 +14°C° 0 mm 3 mps 768 mmHg 72%
    09:00 +15°C° 0 mm 4 mps 768 mmHg 66%
    10:00 +18°C° 0 mm 4 mps 768 mmHg 60%
    11:00 +19°C° 0 mm 4 mps 767 mmHg 55%
    12:00 +20°C° 0 mm 4 mps 767 mmHg 52%
    13:00 +21°C° 0 mm 3 mps 766 mmHg 49%
    14:00 +22°C° 0 mm 3 mps 765 mmHg 45%
    15:00 +21°C° 0 mm 2 mps 765 mmHg 48%
    16:00 +21°C° 0 mm 2 mps 766 mmHg 51%
    17:00 +20°C° 0 mm 2 mps 766 mmHg 54%
    18:00 +20°C° 0 mm 2 mps 766 mmHg 54%
    19:00 +19°C° 0 mm 2 mps 766 mmHg 54%
    20:00 +18°C° 0 mm 2 mps 766 mmHg 55%
    21:00 +18°C° 0 mm 3 mps 766 mmHg 56%
    22:00 +18°C° 0 mm 3 mps 766 mmHg 56%
    23:00 +17°C° 0 mm 3 mps 766 mmHg 57%

    Tomorrow, 3 June, Wednesday

    Time Temperature Precipitation Wind Pressure Humidity
    00:00 +17°C° 0 mm 3 mps 766 mmHg 57%
    01:00 +17°C° 0 mm 3 mps 766 mmHg 58%
    02:00 +17°C° 0 mm 3 mps 766 mmHg 58%
    03:00 +17°C° 0 mm 3 mps 766 mmHg 57%
    04:00 +17°C° 0 mm 3 mps 766 mmHg 56%
    05:00 +17°C° 0 mm 3 mps 766 mmHg 55%
    06:00 +17°C° 0 mm 3 mps 766 mmHg 57%
    07:00 +17°C° 0 mm 3 mps 766 mmHg 58%
    08:00 +16°C° 0 mm 3 mps 766 mmHg 60%
    09:00 +18°C° 0 mm 2 mps 766 mmHg 55%
    10:00 +20°C° 0 mm 2 mps 766 mmHg 51%
    11:00 +23°C° 0 mm 2 mps 766 mmHg 46%
    12:00 +23°C° 0 mm 2 mps 765 mmHg 45%
    13:00 +24°C° 0 mm 2 mps 765 mmHg 44%
    14:00 +24°C° 0 mm 2 mps 764 mmHg 42%
    15:00 +24°C° 0 mm 2 mps 764 mmHg 46%
    16:00 +23°C° 0 mm 1 mps 764 mmHg 49%
    17:00 +22°C° 0 mm 1 mps 765 mmHg 52%
    18:00 +21°C° 0 mm 1 mps 765 mmHg 52%
    19:00 +20°C° 0 mm 2 mps 765 mmHg 53%
    20:00 +19°C° 0 mm 2 mps 765 mmHg 53%
    21:00 +19°C° 0 mm 2 mps 765 mmHg 53%
    22:00 +18°C° 0 mm 2 mps 765 mmHg 53%
    23:00 +18°C° 0 mm 2 mps 765 mmHg 53%

    Day after tomorrow, 4 June, Thursday

    Time Temperature Precipitation Wind Pressure Humidity
    00:00 +18°C° 0 mm 2 mps 765 mmHg 53%
    01:00 +18°C° 0 mm 2 mps 765 mmHg 53%
    02:00 +18°C° 0 mm 2 mps 764 mmHg 53%
    03:00 +18°C° 0 mm 2 mps 764 mmHg 53%
    04:00 +19°C° 0 mm 1 mps 765 mmHg 53%
    05:00 +19°C° 0 mm 1 mps 765 mmHg 53%
    06:00 +19°C° 0 mm 1 mps 765 mmHg 53%
    07:00 +19°C° 0 mm 1 mps 765 mmHg 53%
    08:00 +19°C° 0 mm 1 mps 765 mmHg 52%
    09:00 +20°C° 0 mm 1 mps 765 mmHg 49%
    10:00 +22°C° 0 mm 1 mps 766 mmHg 47%
    11:00 +21°C° 0 mm 0 mps 766 mmHg 44%
    12:00 +23°C° 0 mm 1 mps 765 mmHg 43%
    13:00 +23°C° 0 mm 1 mps 765 mmHg 43%
    14:00 +24°C° 0 mm 1 mps 764 mmHg 43%
    15:00 +23°C° 0 mm 1 mps 765 mmHg 48%
    16:00 +21°C° 0 mm 2 mps 765 mmHg 52%
    17:00 +20°C° 0 mm 2 mps 765 mmHg 57%
    18:00 +19°C° 0 mm 2 mps 766 mmHg 60%
    19:00 +19°C° 0 mm 2 mps 766 mmHg 63%
    20:00 +18°C° 0 mm 2 mps 766 mmHg 66%
    21:00 +18°C° 0 mm 2 mps 767 mmHg 67%
    22:00 +17°C° 0 mm 2 mps 767 mmHg 68%
    23:00 +17°C° 0 mm 2 mps 767 mmHg 69%

    5 June, Friday

    Time Temperature Precipitation Wind Pressure Humidity
    00:00 +16°C° 0 mm 1 mps 767 mmHg 69%
    01:00 +16°C° 0 mm 1 mps 766 mmHg 70%
    02:00 +16°C° 0 mm 1 mps 766 mmHg 70%
    03:00 +16°C° 0 mm 1 mps 766 mmHg 71%
    04:00 +15°C° 0 mm 2 mps 766 mmHg 71%
    05:00 +15°C° 0 mm 2 mps 766 mmHg 72%
    06:00 +15°C° 0 mm 2 mps 767 mmHg 72%
    07:00 +15°C° 0 mm 2 mps 767 mmHg 72%
    08:00 +15°C° 0 mm 2 mps 767 mmHg 72%
    09:00 +17°C° 0 mm 2 mps 767 mmHg 65%
    10:00 +19°C° 0 mm 2 mps 767 mmHg 58%
    11:00 +21°C° 0 mm 2 mps 767 mmHg 51%
    12:00 +23°C° 0 mm 2 mps 767 mmHg 49%
    13:00 +24°C° 0 mm 1 mps 766 mmHg 46%
    14:00 +25°C° 0 mm 1 mps 766 mmHg 43%
    15:00 +24°C° 0 mm 1 mps 766 mmHg 48%
    16:00 +23°C° 0 mm 1 mps 766 mmHg 53%
    17:00 +21°C° 0 mm 2 mps 766 mmHg 58%
    18:00 +20°C° 0 mm 2 mps 766 mmHg 59%
    19:00 +19°C° 0 mm 2 mps 766 mmHg 60%
    20:00 +18°C° 0 mm 2 mps 766 mmHg 62%
    21:00 +18°C° 0 mm 2 mps 766 mmHg 63%
    22:00 +18°C° 0 mm 2 mps 766 mmHg 64%
    23:00 +17°C° 0 mm 2 mps 766 mmHg 65%

    6 June, Saturday

    Time Temperature Precipitation Wind Pressure Humidity
    00:00 +17°C° 0 mm 2 mps 766 mmHg 67%
    01:00 +17°C° 0 mm 3 mps 766 mmHg 68%
    02:00 +16°C° 0 mm 3 mps 765 mmHg 70%
    03:00 +16°C° 0 mm 3 mps 765 mmHg 72%
    04:00 +16°C° 0 mm 3 mps 765 mmHg 75%
    05:00 +15°C° 0 mm 2 mps 765 mmHg 77%
    06:00 +15°C° 0 mm 2 mps 765 mmHg 77%
    07:00 +15°C° 0 mm 2 mps 765 mmHg 77%
    08:00 +15°C° 0 mm 2 mps 765 mmHg 76%
    09:00 +17°C° 0 mm 2 mps 765 mmHg 70%
    10:00 +19°C° 0 mm 2 mps 764 mmHg 63%
    11:00 +20°C° 0 mm 2 mps 764 mmHg 56%
    12:00 +21°C° 0 mm 2 mps 763 mmHg 53%
    13:00 +23°C° 0 mm 2 mps 763 mmHg 50%
    14:00 +24°C° 0 mm 2 mps 762 mmHg 47%
    15:00 +24°C° 0 mm 2 mps 762 mmHg 50%
    16:00 +23°C° 0 mm 1 mps 762 mmHg 52%
    17:00 +22°C° 0 mm 1 mps 762 mmHg 55%
    18:00 +21°C° 0.2 mm 2 mps 762 mmHg 61%
    19:00 +20°C° 0.2 mm 3 mps 762 mmHg 67%
    20:00 +19°C° 0.2 mm 5 mps 763 mmHg 73%
    21:00 +19°C° 0.7 mm 3 mps 763 mmHg 78%
    22:00 +18°C° 0.7 mm 2 mps 763 mmHg 84%
    23:00 +16°C° 0.7 mm 0 mps 763 mmHg 89%

    7 June, Sunday

    Time Temperature Precipitation Wind Pressure Humidity
    00:00 +18°C° 0.6 mm 1 mps 762 mmHg 89%
    01:00 +18°C° 0.6 mm 1 mps 762 mmHg 88%
    02:00 +18°C° 0.6 mm 1 mps 762 mmHg 88%
    03:00 +18°C° 0.8 mm 1 mps 762 mmHg 88%
    04:00 +18°C° 0.8 mm 1 mps 762 mmHg 89%
    05:00 +18°C° 0.8 mm 1 mps 762 mmHg 89%
    06:00 +18°C° 0 mm 1 mps 762 mmHg 89%
    07:00 +18°C° 0 mm 1 mps 762 mmHg 90%
    08:00 +18°C° 0 mm 1 mps 763 mmHg 90%
    09:00 +18°C° 0.1 mm 2 mps 763 mmHg 83%
    10:00 +19°C° 0.1 mm 2 mps 763 mmHg 76%
    11:00 +21°C° 0.1 mm 2 mps 763 mmHg 69%
    12:00 +21°C° 0 mm 2 mps 762 mmHg 66%
    13:00 +21°C° 0 mm 2 mps 762 mmHg 63%
    14:00 +23°C° 0 mm 2 mps 762 mmHg 60%
    15:00 +21°C° 0 mm 2 mps 762 mmHg 65%
    16:00 +20°C° 0 mm 2 mps 762 mmHg 70%
    17:00 +20°C° 0 mm 2 mps 762 mmHg 75%
    18:00 +19°C° 0 mm 2 mps 763 mmHg 77%
    19:00 +19°C° 0 mm 1 mps 763 mmHg 80%
    20:00 +19°C° 0 mm 1 mps 764 mmHg 83%
    21:00 +18°C° 0 mm 1 mps 764 mmHg 84%
    22:00 +18°C° 0 mm 1 mps 764 mmHg 85%
    23:00 +18°C° 0 mm 1 mps 764 mmHg 86%
    Show more